Time,TemperatureF,DewpointF,PressureIn,WindDirection,WindDirectionDegrees,WindSpeedMPH,WindSpeedGustMPH,Humidity,HourlyPrecipIn,Conditions,Clouds,dailyrainin,SoftwareType,DateUTC
2013-02-05 00:13:00,37.9,20.0,30.04,NW,314,5.0,6.0,49,0.00,,,0.00,weatherlink.com 1.10,2013-02-05 07:13:00,
2013-02-05 00:28:00,37.0,20.0,30.05,NW,315,2.0,4.0,50,0.00,,,0.00,weatherlink.com 1.10,2013-02-05 07:28:00,
2013-02-05 00:43:00,35.6,20.0,30.05,NNE,30,4.0,4.0,53,0.00,,,0.00,weatherlink.com 1.10,2013-02-05 07:43:00,
2013-02-05 00:58:00,35.4,20.0,30.05,NNE,30,0.0,2.0,54,0.00,,,0.00,weatherlink.com 1.10,2013-02-05 07:58:00,
2013-02-05 01:13:00,34.8,20.0,30.05,NNE,30,1.0,2.0,55,0.00,,,0.00,weatherlink.com 1.10,2013-02-05 08:13:00,
2013-02-05 01:28:00,34.0,20.0,30.05,NNE,29,4.0,5.0,57,0.00,,,0.00,weatherlink.com 1.10,2013-02-05 08:28:00,
2013-02-05 01:43:00,33.5,20.0,30.05,North,360,2.0,6.0,58,0.00,,,0.00,weatherlink.com 1.10,2013-02-05 08:43:00,
2013-02-05 01:58:00,34.1,22.0,30.05,NW,313,6.0,10.0,61,0.00,,,0.00,weatherlink.com 1.10,2013-02-05 08:58:00,
2013-02-05 02:13:00,38.0,23.0,30.05,NNW,333,5.0,8.0,55,0.00,,,0.00,weatherlink.com 1.10,2013-02-05 09:13:00,
2013-02-05 02:28:00,37.7,22.0,30.05,North,350,2.0,4.0,53,0.00,,,0.00,weatherlink.com 1.10,2013-02-05 09:28:00,
2013-02-05 02:58:00,36.3,22.0,30.04,North,350,2.0,7.0,56,0.00,,,0.00,weatherlink.com 1.10,2013-02-05 09:58:00,
2013-02-05 03:13:00,35.8,22.0,30.04,North,360,1.0,3.0,57,0.00,,,0.00,weatherlink.com 1.10,2013-02-05 10:13:00,
2013-02-05 03:28:00,35.5,22.0,30.04,WNW,302,0.0,6.0,58,0.00,,,0.00,weatherlink.com 1.10,2013-02-05 10:28:00,
2013-02-05 03:43:00,34.8,21.0,30.04,West,260,2.0,4.0,58,0.00,,,0.00,weatherlink.com 1.10,2013-02-05 10:43:00,
2013-02-05 03:58:00,34.1,21.0,30.04,West,263,0.0,3.0,59,0.00,,,0.00,weatherlink.com 1.10,2013-02-05 10:58:00,
2013-02-05 04:13:00,32.8,21.0,30.05,West,263,0.0,3.0,62,0.00,,,0.00,weatherlink.com 1.10,2013-02-05 11:13:00,
2013-02-05 04:28:00,32.1,21.0,30.06,West,264,2.0,3.0,64,0.00,,,0.00,weatherlink.com 1.10,2013-02-05 11:28:00,
2013-02-05 04:43:00,32.4,21.0,30.06,East,101,0.0,5.0,64,0.00,,,0.00,weatherlink.com 1.10,2013-02-05 11:43:00,
2013-02-05 04:58:00,32.5,21.0,30.06,East,101,0.0,3.0,63,0.00,,,0.00,weatherlink.com 1.10,2013-02-05 11:58:00,
2013-02-05 05:13:00,31.9,20.0,30.07,East,101,0.0,1.0,63,0.00,,,0.00,weatherlink.com 1.10,2013-02-05 12:13:00,
2013-02-05 05:29:00,30.7,20.0,30.06,North,355,3.0,6.0,65,0.00,,,0.00,weatherlink.com 1.10,2013-02-05 12:29:00,
2013-02-05 05:44:00,30.2,20.0,30.07,North,355,1.0,4.0,67,0.00,,,0.00,weatherlink.com 1.10,2013-02-05 12:44:00,
2013-02-05 05:59:00,30.0,21.0,30.08,NNW,338,0.0,4.0,68,0.00,,,0.00,weatherlink.com 1.10,2013-02-05 12:59:00,
2013-02-05 06:14:00,30.5,21.0,30.08,North,349,5.0,6.0,68,0.00,,,0.00,weatherlink.com 1.10,2013-02-05 13:14:00,
2013-02-05 06:29:00,31.5,22.0,30.08,North,355,3.0,8.0,68,0.00,,,0.00,weatherlink.com 1.10,2013-02-05 13:29:00,
2013-02-05 06:44:00,31.7,22.0,30.08,NNW,340,2.0,4.0,67,0.00,,,0.00,weatherlink.com 1.10,2013-02-05 13:44:00,
2013-02-05 06:59:00,31.4,21.0,30.09,NNW,340,2.0,3.0,66,0.00,,,0.00,weatherlink.com 1.10,2013-02-05 13:59:00,
2013-02-05 07:13:00,30.9,21.0,30.09,SSW,211,4.0,5.0,68,0.00,,,0.00,weatherlink.com 1.10,2013-02-05 14:13:00,
2013-02-05 07:30:00,30.8,21.0,30.10,SSW,211,1.0,4.0,68,0.00,,,0.00,weatherlink.com 1.10,2013-02-05 14:30:00,
2013-02-05 07:35:00,30.8,21.1,30.10,SSW,211,0.0,2.0,67,0.00,,,0.00,Wunderground v.1.15,2013-02-05 14:35:00,
2013-02-05 07:40:00,30.7,21.4,30.10,SSW,211,2.0,2.0,68,0.00,,,0.00,Wunderground v.1.15,2013-02-05 14:40:00,
2013-02-05 07:45:00,30.9,21.6,30.10,SSW,211,0.0,2.0,68,0.00,,,0.00,Wunderground v.1.15,2013-02-05 14:45:00,
2013-02-05 07:50:00,31.3,22.0,30.10,SSW,211,0.0,0.0,68,0.00,,,0.00,Wunderground v.1.15,2013-02-05 14:50:00,
2013-02-05 07:55:00,31.7,22.3,30.10,SSW,211,1.0,2.0,68,0.00,,,0.00,Wunderground v.1.15,2013-02-05 14:55:00,
2013-02-05 08:01:00,32.6,22.8,30.10,SSW,211,2.0,2.0,67,0.00,,,0.00,Wunderground v.1.15,2013-02-05 15:01:00,
2013-02-05 08:06:00,33.7,23.2,30.10,SSW,211,2.0,3.0,65,0.00,,,0.00,Wunderground v.1.15,2013-02-05 15:06:00,
2013-02-05 08:12:00,35.4,23.7,30.11,SSW,211,0.0,2.0,62,0.00,,,0.00,Wunderground v.1.15,2013-02-05 15:12:00,
2013-02-05 08:17:00,37.0,24.0,30.11,SSW,211,0.0,2.0,59,0.00,,,0.00,Wunderground v.1.15,2013-02-05 15:17:00,
2013-02-05 08:22:00,38.4,24.1,30.11,SSW,211,1.0,2.0,56,0.00,,,0.00,Wunderground v.1.15,2013-02-05 15:22:00,
2013-02-05 08:27:00,39.5,24.2,30.11,SSW,211,2.0,2.0,54,0.00,,,0.00,Wunderground v.1.15,2013-02-05 15:27:00,
2013-02-05 08:32:00,40.4,24.1,30.11,NNW,344,3.0,4.0,52,0.00,,,0.00,Wunderground v.1.15,2013-02-05 15:32:00,
2013-02-05 08:37:00,40.7,24.4,30.11,NNW,347,2.0,5.0,52,0.00,,,0.00,Wunderground v.1.15,2013-02-05 15:37:00,
2013-02-05 08:42:00,40.6,24.3,30.11,North,360,4.0,6.0,52,0.00,,,0.00,Wunderground v.1.15,2013-02-05 15:42:00,
2013-02-05 08:47:00,40.4,24.1,30.11,North,360,6.0,6.0,52,0.00,,,0.00,Wunderground v.1.15,2013-02-05 15:47:00,
2013-02-05 08:52:00,40.6,24.3,30.11,North,360,5.0,6.0,52,0.00,,,0.00,Wunderground v.1.15,2013-02-05 15:52:00,
2013-02-05 08:57:00,41.0,24.7,30.11,North,360,3.0,6.0,52,0.00,,,0.00,Wunderground v.1.15,2013-02-05 15:57:00,
2013-02-05 09:02:00,41.6,24.8,30.11,North,360,4.0,6.0,51,0.00,,,0.00,Wunderground v.1.15,2013-02-05 16:02:00,
2013-02-05 09:07:00,41.9,25.1,30.11,North,360,4.0,7.0,51,0.00,,,0.00,Wunderground v.1.15,2013-02-05 16:07:00,
2013-02-05 09:12:00,41.9,24.6,30.11,North,350,5.0,7.0,50,0.00,,,0.00,Wunderground v.1.15,2013-02-05 16:12:00,
2013-02-05 09:17:00,42.1,24.8,30.11,North,355,9.0,9.0,50,0.00,,,0.00,Wunderground v.1.15,2013-02-05 16:17:00,
2013-02-05 09:23:00,42.4,25.1,30.11,NNW,347,7.0,9.0,50,0.00,,,0.00,Wunderground v.1.15,2013-02-05 16:23:00,
2013-02-05 09:28:00,42.8,24.9,30.11,North,350,6.0,9.0,49,0.00,,,0.00,Wunderground v.1.15,2013-02-05 16:28:00,
2013-02-05 09:33:00,43.4,25.0,30.11,North,360,6.0,8.0,48,0.00,,,0.00,Wunderground v.1.15,2013-02-05 16:33:00,
2013-02-05 09:38:00,43.8,24.9,30.11,North,5,1.0,8.0,47,0.00,,,0.00,Wunderground v.1.15,2013-02-05 16:38:00,
2013-02-05 09:43:00,44.2,25.2,30.11,North,9,5.0,6.0,47,0.00,,,0.00,Wunderground v.1.15,2013-02-05 16:43:00,
2013-02-05 09:48:00,44.6,25.1,30.11,NNE,18,3.0,6.0,46,0.00,,,0.00,Wunderground v.1.15,2013-02-05 16:48:00,
2013-02-05 09:53:00,44.8,24.7,30.11,ENE,68,4.0,8.0,45,0.00,,,0.00,Wunderground v.1.15,2013-02-05 16:53:00,
2013-02-05 09:58:00,45.0,24.9,30.11,NE,44,5.0,8.0,45,0.00,,,0.00,Wunderground v.1.15,2013-02-05 16:58:00,
2013-02-05 10:03:00,45.6,24.9,30.11,ENE,64,4.0,7.0,44,0.00,,,0.00,Wunderground v.1.15,2013-02-05 17:03:00,
2013-02-05 10:08:00,46.1,24.8,30.11,NE,52,5.0,7.0,43,0.00,,,0.00,Wunderground v.1.15,2013-02-05 17:08:00,
2013-02-05 10:13:00,46.4,25.1,30.10,NE,34,3.0,6.0,43,0.00,,,0.00,Wunderground v.1.15,2013-02-05 17:13:00,
2013-02-05 10:18:00,46.9,25.0,30.11,NNE,29,5.0,6.0,42,0.00,,,0.00,Wunderground v.1.15,2013-02-05 17:18:00,
2013-02-05 10:23:00,47.1,24.6,30.10,NE,52,4.0,7.0,41,0.00,,,0.00,Wunderground v.1.15,2013-02-05 17:23:00,
2013-02-05 10:28:00,47.4,24.9,30.10,North,10,4.0,8.0,41,0.00,,,0.00,Wunderground v.1.15,2013-02-05 17:28:00,
2013-02-05 10:33:00,48.0,24.8,30.10,North,355,4.0,6.0,40,0.00,,,0.00,Wunderground v.1.15,2013-02-05 17:33:00,
2013-02-05 10:39:00,48.5,24.6,30.10,ENE,63,2.0,6.0,39,0.00,,,0.00,Wunderground v.1.15,2013-02-05 17:39:00,
2013-02-05 10:44:00,49.0,24.5,30.10,NE,37,6.0,6.0,38,0.00,,,0.00,Wunderground v.1.15,2013-02-05 17:44:00,
2013-02-05 10:49:00,49.7,25.1,30.10,NNE,30,4.0,10.0,38,0.00,,,0.00,Wunderground v.1.15,2013-02-05 17:49:00,
2013-02-05 10:54:00,50.2,24.2,30.10,NNW,341,2.0,5.0,36,0.00,,,0.00,Wunderground v.1.15,2013-02-05 17:54:00,
2013-02-05 10:59:00,50.4,24.4,30.10,North,360,2.0,6.0,36,0.00,,,0.00,Wunderground v.1.15,2013-02-05 17:59:00,
2013-02-05 11:04:00,50.6,24.6,30.10,ENE,58,2.0,5.0,36,0.00,,,0.00,Wunderground v.1.15,2013-02-05 18:04:00,
2013-02-05 11:09:00,50.3,24.3,30.10,ENE,61,1.0,6.0,36,0.00,,,0.00,Wunderground v.1.15,2013-02-05 18:09:00,
2013-02-05 11:14:00,50.4,24.4,30.09,NE,56,3.0,6.0,36,0.00,,,0.00,Wunderground v.1.15,2013-02-05 18:14:00,
2013-02-05 11:19:00,50.9,24.2,30.09,NNW,335,5.0,8.0,35,0.00,,,0.00,Wunderground v.1.15,2013-02-05 18:19:00,
2013-02-05 11:24:00,51.3,24.5,30.09,NE,53,2.0,6.0,35,0.00,,,0.00,Wunderground v.1.15,2013-02-05 18:24:00,
2013-02-05 11:29:00,51.8,24.3,30.08,NNW,342,2.0,6.0,34,0.00,,,0.00,Wunderground v.1.15,2013-02-05 18:29:00,
2013-02-05 11:34:00,52.4,24.8,30.08,NE,51,5.0,5.0,34,0.00,,,0.00,Wunderground v.1.15,2013-02-05 18:34:00,
2013-02-05 11:39:00,52.9,24.5,30.07,NE,49,5.0,9.0,33,0.00,,,0.00,Wunderground v.1.15,2013-02-05 18:39:00,
2013-02-05 11:44:00,52.9,24.5,30.07,North,350,5.0,7.0,33,0.00,,,0.00,Wunderground v.1.15,2013-02-05 18:44:00,
2013-02-05 11:49:00,52.9,23.8,30.07,NNE,24,1.0,9.0,32,0.00,,,0.00,Wunderground v.1.15,2013-02-05 18:49:00,
2013-02-05 11:54:00,53.3,24.2,30.06,NE,34,4.0,4.0,32,0.00,,,0.00,Wunderground v.1.15,2013-02-05 18:54:00,
2013-02-05 11:59:00,53.7,23.7,30.06,NNE,30,3.0,7.0,31,0.00,,,0.00,Wunderground v.1.15,2013-02-05 18:59:00,
2013-02-05 12:05:00,53.7,23.7,30.05,NE,39,5.0,10.0,31,0.00,,,0.00,Wunderground v.1.15,2013-02-05 19:05:00,
2013-02-05 12:10:00,54.1,23.3,30.05,NE,44,3.0,5.0,30,0.00,,,0.00,Wunderground v.1.15,2013-02-05 19:10:00,
2013-02-05 12:15:00,54.5,22.9,30.05,ESE,107,1.0,6.0,29,0.00,,,0.00,Wunderground v.1.15,2013-02-05 19:15:00,
2013-02-05 12:20:00,55.2,24.3,30.04,NNE,25,4.0,5.0,30,0.00,,,0.00,Wunderground v.1.15,2013-02-05 19:20:00,
2013-02-05 12:25:00,55.7,23.9,30.04,NNE,31,4.0,9.0,29,0.00,,,0.00,Wunderground v.1.15,2013-02-05 19:25:00,
2013-02-05 12:30:00,55.7,22.2,30.03,NE,37,0.0,4.0,27,0.00,,,0.00,Wunderground v.1.15,2013-02-05 19:30:00,
2013-02-05 12:35:00,55.3,21.8,30.03,NNE,30,2.0,6.0,27,0.00,,,0.00,Wunderground v.1.15,2013-02-05 19:35:00,
2013-02-05 12:40:00,55.4,21.0,30.03,NE,46,5.0,5.0,26,0.00,,,0.00,Wunderground v.1.15,2013-02-05 19:40:00,
2013-02-05 12:46:00,55.8,21.4,30.02,NW,320,4.0,8.0,26,0.00,,,0.00,Wunderground v.1.15,2013-02-05 19:46:00,
2013-02-05 12:51:00,56.6,23.0,30.02,North,5,3.0,7.0,27,0.00,,,0.00,Wunderground v.1.15,2013-02-05 19:51:00,
2013-02-05 12:56:00,57.1,21.6,30.02,NNE,16,1.0,7.0,25,0.00,,,0.00,Wunderground v.1.15,2013-02-05 19:56:00,
2013-02-05 13:01:00,57.4,21.8,30.02,NW,325,1.0,5.0,25,0.00,,,0.00,Wunderground v.1.15,2013-02-05 20:01:00,
2013-02-05 13:06:00,57.9,21.3,30.01,NNE,19,5.0,7.0,24,0.00,,,0.00,Wunderground v.1.15,2013-02-05 20:06:00,
2013-02-05 13:11:00,58.1,20.4,30.01,NW,313,0.0,4.0,23,0.00,,,0.00,Wunderground v.1.15,2013-02-05 20:11:00,
2013-02-05 13:16:00,57.9,20.3,30.01,WSW,244,4.0,4.0,23,0.00,,,0.00,Wunderground v.1.15,2013-02-05 20:16:00,
2013-02-05 13:22:00,58.2,20.5,30.00,WSW,247,4.0,6.0,23,0.00,,,0.00,Wunderground v.1.15,2013-02-05 20:22:00,
2013-02-05 13:27:00,58.9,19.0,30.00,WSW,247,0.0,6.0,21,0.00,,,0.00,Wunderground v.1.15,2013-02-05 20:27:00,
2013-02-05 13:32:00,59.2,18.1,30.00,WNW,300,6.0,9.0,20,0.00,,,0.00,Wunderground v.1.15,2013-02-05 20:32:00,
2013-02-05 13:37:00,59.1,16.8,30.00,West,281,7.0,9.0,19,0.00,,,0.00,Wunderground v.1.15,2013-02-05 20:37:00,
2013-02-05 13:42:00,59.2,18.1,29.99,West,265,5.0,8.0,20,0.00,,,0.00,Wunderground v.1.15,2013-02-05 20:42:00,
2013-02-05 13:47:00,59.5,17.1,29.99,WNW,292,6.0,10.0,19,0.00,,,0.00,Wunderground v.1.15,2013-02-05 20:47:00,
2013-02-05 13:52:00,59.7,17.3,29.99,SSW,199,6.0,7.0,19,0.00,,,0.00,Wunderground v.1.15,2013-02-05 20:52:00,
2013-02-05 13:57:00,60.2,16.5,29.99,West,275,3.0,8.0,18,0.00,,,0.00,Wunderground v.1.15,2013-02-05 20:57:00,
2013-02-05 14:02:00,60.4,16.6,29.99,NNW,333,8.0,8.0,18,0.00,,,0.00,Wunderground v.1.15,2013-02-05 21:02:00,
2013-02-05 14:07:00,60.0,17.6,29.99,NNE,22,2.0,10.0,19,0.00,,,0.00,Wunderground v.1.15,2013-02-05 21:07:00,
2013-02-05 14:12:00,60.1,16.4,29.99,NE,38,2.0,6.0,18,0.00,,,0.00,Wunderground v.1.15,2013-02-05 21:12:00,
2013-02-05 14:17:00,60.1,16.4,29.98,WNW,300,5.0,7.0,18,0.00,,,0.00,Wunderground v.1.15,2013-02-05 21:17:00,
2013-02-05 14:22:00,60.3,15.2,29.98,WNW,298,2.0,3.0,17,0.00,,,0.00,Wunderground v.1.15,2013-02-05 21:22:00,
2013-02-05 14:27:00,60.6,15.5,29.98,WSW,241,2.0,4.0,17,0.00,,,0.00,Wunderground v.1.15,2013-02-05 21:27:00,
2013-02-05 14:32:00,61.9,17.9,29.98,WSW,242,0.0,2.0,18,0.00,,,0.00,Wunderground v.1.15,2013-02-05 21:32:00,
2013-02-05 14:37:00,62.0,16.6,29.98,ESE,105,1.0,5.0,17,0.00,,,0.00,Wunderground v.1.15,2013-02-05 21:37:00,
2013-02-05 14:42:00,62.0,16.6,29.97,ENE,61,3.0,5.0,17,0.00,,,0.00,Wunderground v.1.15,2013-02-05 21:42:00,
2013-02-05 14:47:00,61.6,16.3,29.97,East,88,3.0,6.0,17,0.00,,,0.00,Wunderground v.1.15,2013-02-05 21:47:00,
2013-02-05 14:52:00,61.4,16.1,29.97,NNW,342,5.0,6.0,17,0.00,,,0.00,Wunderground v.1.15,2013-02-05 21:52:00,
2013-02-05 14:57:00,61.6,16.3,29.97,NNW,331,3.0,6.0,17,0.00,,,0.00,Wunderground v.1.15,2013-02-05 21:57:00,
2013-02-05 15:02:00,61.9,16.5,29.97,NW,312,2.0,6.0,17,0.00,,,0.00,Wunderground v.1.15,2013-02-05 22:02:00,
2013-02-05 15:08:00,61.9,16.5,29.97,WNW,301,2.0,6.0,17,0.00,,,0.00,Wunderground v.1.15,2013-02-05 22:08:00,
2013-02-05 15:13:00,61.9,16.5,29.97,WNW,300,1.0,3.0,17,0.00,,,0.00,Wunderground v.1.15,2013-02-05 22:13:00,
2013-02-05 15:18:00,61.7,16.4,29.97,WNW,302,0.0,3.0,17,0.00,,,0.00,Wunderground v.1.15,2013-02-05 22:18:00,
2013-02-05 15:23:00,61.6,16.3,29.97,WNW,300,3.0,3.0,17,0.00,,,0.00,Wunderground v.1.15,2013-02-05 22:23:00,
2013-02-05 15:28:00,61.5,16.2,29.97,West,266,3.0,5.0,17,0.00,,,0.00,Wunderground v.1.15,2013-02-05 22:28:00,
2013-02-05 15:33:00,61.4,16.1,29.97,South,174,2.0,3.0,17,0.00,,,0.00,Wunderground v.1.15,2013-02-05 22:33:00,
2013-02-05 15:38:00,61.5,16.2,29.96,South,173,3.0,4.0,17,0.00,,,0.00,Wunderground v.1.15,2013-02-05 22:38:00,
2013-02-05 15:43:00,61.6,16.3,29.97,South,173,4.0,4.0,17,0.00,,,0.00,Wunderground v.1.15,2013-02-05 22:43:00,
2013-02-05 15:48:00,61.7,16.4,29.96,South,172,1.0,5.0,17,0.00,,,0.00,Wunderground v.1.15,2013-02-05 22:48:00,
2013-02-05 15:53:00,62.1,16.7,29.96,SW,233,2.0,2.0,17,0.00,,,0.00,Wunderground v.1.15,2013-02-05 22:53:00,
2013-02-05 15:58:00,62.1,16.7,29.96,WNW,289,0.0,3.0,17,0.00,,,0.00,Wunderground v.1.15,2013-02-05 22:58:00,
2013-02-05 16:03:00,62.1,16.7,29.96,NNE,20,4.0,4.0,17,0.00,,,0.00,Wunderground v.1.15,2013-02-05 23:03:00,
2013-02-05 16:08:00,62.1,16.7,29.96,WNW,294,4.0,4.0,17,0.00,,,0.00,Wunderground v.1.15,2013-02-05 23:08:00,
2013-02-05 16:13:00,62.4,17.0,29.96,West,275,0.0,4.0,17,0.00,,,0.00,Wunderground v.1.15,2013-02-05 23:13:00,
2013-02-05 16:18:00,62.5,17.0,29.96,West,271,1.0,4.0,17,0.00,,,0.00,Wunderground v.1.15,2013-02-05 23:18:00,
2013-02-05 16:23:00,62.7,17.2,29.96,West,271,3.0,3.0,17,0.00,,,0.00,Wunderground v.1.15,2013-02-05 23:23:00,
2013-02-05 16:28:00,62.6,17.1,29.95,West,271,1.0,4.0,17,0.00,,,0.00,Wunderground v.1.15,2013-02-05 23:28:00,
2013-02-05 16:33:00,62.7,17.2,29.95,West,264,1.0,5.0,17,0.00,,,0.00,Wunderground v.1.15,2013-02-05 23:33:00,
2013-02-05 16:38:00,62.7,17.2,29.96,West,265,3.0,5.0,17,0.00,,,0.00,Wunderground v.1.15,2013-02-05 23:38:00,
2013-02-05 16:43:00,62.5,17.0,29.96,West,264,0.0,2.0,17,0.00,,,0.00,Wunderground v.1.15,2013-02-05 23:43:00,
2013-02-05 16:48:00,62.5,17.0,29.96,SSE,163,4.0,4.0,17,0.00,,,0.00,Wunderground v.1.15,2013-02-05 23:48:00,
2013-02-05 16:53:00,62.2,16.8,29.96,SSE,154,0.0,2.0,17,0.00,,,0.00,Wunderground v.1.15,2013-02-05 23:53:00,
2013-02-05 16:58:00,61.9,17.9,29.96,SSE,154,1.0,3.0,18,0.00,,,0.00,Wunderground v.1.15,2013-02-05 23:58:00,
2013-02-05 17:03:00,61.7,17.7,29.96,SSE,153,0.0,2.0,18,0.00,,,0.00,Wunderground v.1.15,2013-02-06 00:03:00,
2013-02-05 17:08:00,61.5,17.5,29.96,SSE,153,1.0,3.0,18,0.00,,,0.00,Wunderground v.1.15,2013-02-06 00:08:00,
2013-02-05 17:13:00,61.3,17.4,29.96,NE,50,3.0,3.0,18,0.00,,,0.00,Wunderground v.1.15,2013-02-06 00:13:00,
2013-02-05 17:18:00,60.9,17.0,29.96,NE,50,1.0,4.0,18,0.00,,,0.00,Wunderground v.1.15,2013-02-06 00:18:00,
2013-02-05 17:23:00,60.6,16.8,29.96,NE,49,1.0,3.0,18,0.00,,,0.00,Wunderground v.1.15,2013-02-06 00:23:00,
2013-02-05 17:28:00,60.2,17.7,29.96,NE,50,1.0,3.0,19,0.00,,,0.00,Wunderground v.1.15,2013-02-06 00:28:00,
2013-02-05 17:33:00,59.7,17.3,29.96,NE,49,1.0,1.0,19,0.00,,,0.00,Wunderground v.1.15,2013-02-06 00:33:00,
2013-02-05 17:38:00,59.3,17.0,29.96,NE,49,0.0,1.0,19,0.00,,,0.00,Wunderground v.1.15,2013-02-06 00:38:00,
2013-02-05 17:43:00,58.8,17.8,29.96,NE,49,0.0,0.0,20,0.00,,,0.00,Wunderground v.1.15,2013-02-06 00:43:00,
2013-02-05 17:48:00,58.2,17.3,29.96,NE,49,0.0,0.0,20,0.00,,,0.00,Wunderground v.1.15,2013-02-06 00:48:00,
2013-02-05 17:53:00,57.5,16.7,29.96,NE,49,1.0,2.0,20,0.00,,,0.00,Wunderground v.1.15,2013-02-06 00:53:00,
2013-02-05 17:59:00,56.5,17.0,29.96,NE,49,1.0,2.0,21,0.00,,,0.00,Wunderground v.1.15,2013-02-06 00:59:00,
2013-02-05 18:04:00,55.7,17.4,29.96,NE,49,1.0,2.0,22,0.00,,,0.00,Wunderground v.1.15,2013-02-06 01:04:00,
2013-02-05 18:09:00,55.0,17.8,29.96,NE,49,3.0,3.0,23,0.00,,,0.00,Wunderground v.1.15,2013-02-06 01:09:00,
2013-02-05 18:14:00,54.2,18.1,29.96,NE,49,1.0,3.0,24,0.00,,,0.00,Wunderground v.1.15,2013-02-06 01:14:00,
2013-02-05 18:19:00,53.6,17.6,29.96,NE,49,1.0,3.0,24,0.00,,,0.00,Wunderground v.1.15,2013-02-06 01:19:00,
2013-02-05 18:24:00,53.2,18.2,29.97,NE,49,1.0,2.0,25,0.00,,,0.00,Wunderground v.1.15,2013-02-06 01:24:00,
2013-02-05 18:29:00,52.8,17.9,29.97,NE,50,1.0,2.0,25,0.00,,,0.00,Wunderground v.1.15,2013-02-06 01:29:00,
2013-02-05 18:34:00,52.4,18.5,29.97,NE,49,0.0,2.0,26,0.00,,,0.00,Wunderground v.1.15,2013-02-06 01:34:00,
2013-02-05 18:39:00,51.8,18.0,29.97,NE,49,0.0,2.0,26,0.00,,,0.00,Wunderground v.1.15,2013-02-06 01:39:00,
2013-02-05 18:44:00,51.1,17.4,29.97,NE,49,0.0,1.0,26,0.00,,,0.00,Wunderground v.1.15,2013-02-06 01:44:00,
2013-02-05 18:49:00,50.4,17.6,29.97,SE,134,3.0,4.0,27,0.00,,,0.00,Wunderground v.1.15,2013-02-06 01:49:00,
2013-02-05 18:54:00,50.1,18.2,29.97,SE,134,0.0,2.0,28,0.00,,,0.00,Wunderground v.1.15,2013-02-06 01:54:00,
2013-02-05 18:59:00,49.6,17.8,29.97,SE,126,2.0,2.0,28,0.00,,,0.00,Wunderground v.1.15,2013-02-06 01:59:00,
2013-02-05 19:04:00,49.2,18.3,29.97,East,101,5.0,6.0,29,0.00,,,0.00,Wunderground v.1.15,2013-02-06 02:04:00,
2013-02-05 19:09:00,49.2,18.3,29.97,East,86,3.0,6.0,29,0.00,,,0.00,Wunderground v.1.15,2013-02-06 02:09:00,
2013-02-05 19:14:00,49.4,18.4,29.97,East,86,1.0,5.0,29,0.00,,,0.00,Wunderground v.1.15,2013-02-06 02:14:00,
2013-02-05 19:19:00,49.5,18.5,29.98,East,86,2.0,5.0,29,0.00,,,0.00,Wunderground v.1.15,2013-02-06 02:19:00,
2013-02-05 19:24:00,49.3,19.1,29.97,East,86,3.0,3.0,30,0.00,,,0.00,Wunderground v.1.15,2013-02-06 02:24:00,
2013-02-05 19:29:00,49.2,19.0,29.98,East,86,3.0,5.0,30,0.00,,,0.00,Wunderground v.1.15,2013-02-06 02:29:00,
2013-02-05 19:35:00,48.8,18.7,29.98,ENE,76,2.0,4.0,30,0.00,,,0.00,Wunderground v.1.15,2013-02-06 02:35:00,
2013-02-05 19:40:00,48.4,18.3,29.98,East,96,1.0,2.0,30,0.00,,,0.00,Wunderground v.1.15,2013-02-06 02:40:00,
2013-02-05 19:45:00,48.0,18.8,29.98,East,96,1.0,3.0,31,0.00,,,0.00,Wunderground v.1.15,2013-02-06 02:45:00,
2013-02-05 19:50:00,47.6,18.4,29.98,East,96,0.0,1.0,31,0.00,,,0.00,Wunderground v.1.15,2013-02-06 02:50:00,
2013-02-05 19:55:00,47.2,18.8,29.98,East,96,0.0,1.0,32,0.00,,,0.00,Wunderground v.1.15,2013-02-06 02:55:00,
2013-02-05 20:00:00,46.8,18.5,29.98,East,96,1.0,1.0,32,0.00,,,0.00,Wunderground v.1.15,2013-02-06 03:00:00,
2013-02-05 20:05:00,46.3,18.7,29.98,East,96,2.0,3.0,33,0.00,,,0.00,Wunderground v.1.15,2013-02-06 03:05:00,
2013-02-05 20:10:00,45.8,19.0,29.98,East,96,0.0,2.0,34,0.00,,,0.00,Wunderground v.1.15,2013-02-06 03:10:00,
2013-02-05 20:15:00,45.2,19.1,29.98,East,96,2.0,2.0,35,0.00,,,0.00,Wunderground v.1.15,2013-02-06 03:15:00,
2013-02-05 20:20:00,44.7,18.7,29.98,East,96,2.0,2.0,35,0.00,,,0.00,Wunderground v.1.15,2013-02-06 03:20:00,
2013-02-05 20:25:00,44.4,19.1,29.98,NNW,346,3.0,5.0,36,0.00,,,0.00,Wunderground v.1.15,2013-02-06 03:25:00,
2013-02-05 20:30:00,44.0,18.7,29.98,NNW,346,0.0,2.0,36,0.00,,,0.00,Wunderground v.1.15,2013-02-06 03:30:00,
2013-02-05 20:35:00,43.8,19.2,29.98,NNW,346,3.0,3.0,37,0.00,,,0.00,Wunderground v.1.15,2013-02-06 03:35:00,
2013-02-05 20:40:00,43.6,19.0,29.98,NNW,346,0.0,1.0,37,0.00,,,0.00,Wunderground v.1.15,2013-02-06 03:40:00,
2013-02-05 20:45:00,43.3,18.7,29.98,NNW,346,0.0,1.0,37,0.00,,,0.00,Wunderground v.1.15,2013-02-06 03:45:00,
2013-02-05 20:50:00,42.8,18.9,29.98,NNW,346,0.0,0.0,38,0.00,,,0.00,Wunderground v.1.15,2013-02-06 03:50:00,
2013-02-05 20:55:00,42.4,19.2,29.98,NNW,346,0.0,0.0,39,0.00,,,0.00,Wunderground v.1.15,2013-02-06 03:55:00,
2013-02-05 21:00:00,42.0,18.8,29.98,NNW,346,0.0,0.0,39,0.00,,,0.00,Wunderground v.1.15,2013-02-06 04:00:00,
2013-02-05 21:05:00,41.7,19.1,29.98,NNW,346,0.0,0.0,40,0.00,,,0.00,Wunderground v.1.15,2013-02-06 04:05:00,
2013-02-05 21:10:00,41.4,18.3,29.98,NNW,347,0.0,0.0,39,0.00,,,0.00,Wunderground v.1.15,2013-02-06 04:10:00,
2013-02-05 21:16:00,40.9,18.4,29.98,NNW,346,2.0,2.0,40,0.00,,,0.00,Wunderground v.1.15,2013-02-06 04:16:00,
2013-02-05 21:21:00,40.5,18.6,29.98,NNW,346,2.0,3.0,41,0.00,,,0.00,Wunderground v.1.15,2013-02-06 04:21:00,
2013-02-05 21:26:00,40.4,19.1,29.98,NNW,346,2.0,3.0,42,0.00,,,0.00,Wunderground v.1.15,2013-02-06 04:26:00,
2013-02-05 21:31:00,40.2,18.9,29.98,NNW,346,0.0,2.0,42,0.00,,,0.00,Wunderground v.1.15,2013-02-06 04:31:00,
2013-02-05 21:36:00,40.0,18.7,29.98,NNW,346,0.0,2.0,42,0.00,,,0.00,Wunderground v.1.15,2013-02-06 04:36:00,
2013-02-05 21:41:00,39.5,18.3,29.98,NNW,346,2.0,2.0,42,0.00,,,0.00,Wunderground v.1.15,2013-02-06 04:41:00,
2013-02-05 21:46:00,39.0,18.9,29.98,NNW,347,3.0,3.0,44,0.00,,,0.00,Wunderground v.1.15,2013-02-06 04:46:00,
2013-02-05 21:51:00,38.8,18.7,29.98,NNW,346,4.0,4.0,44,0.00,,,0.00,Wunderground v.1.15,2013-02-06 04:51:00,
2013-02-05 21:56:00,38.7,19.2,29.98,NNW,346,0.0,4.0,45,0.00,,,0.00,Wunderground v.1.15,2013-02-06 04:56:00,
2013-02-05 22:00:00,38.6,19.1,29.98,NNW,346,1.0,4.0,45,0.00,,,0.00,Wunderground v.1.15,2013-02-06 05:00:00,
2013-02-05 22:01:00,38.5,19.0,29.99,NNW,347,1.0,2.0,45,0.00,,,0.00,Wunderground v.1.15,2013-02-06 05:01:00,
2013-02-05 22:06:00,38.2,18.7,29.99,NNW,346,1.0,3.0,45,0.00,,,0.00,Wunderground v.1.15,2013-02-06 05:06:00,
2013-02-05 22:11:00,37.9,18.9,29.98,NNW,346,1.0,2.0,46,0.00,,,0.00,Wunderground v.1.15,2013-02-06 05:11:00,
2013-02-05 22:16:00,37.7,18.8,29.99,NNW,346,3.0,3.0,46,0.00,,,0.00,Wunderground v.1.15,2013-02-06 05:16:00,
2013-02-05 22:21:00,37.6,18.2,29.99,NNW,346,3.0,3.0,45,0.00,,,0.00,Wunderground v.1.15,2013-02-06 05:21:00,
2013-02-05 22:26:00,37.4,18.5,29.99,NNW,346,2.0,3.0,46,0.00,,,0.00,Wunderground v.1.15,2013-02-06 05:26:00,
2013-02-05 22:31:00,37.1,18.7,29.99,NNW,346,1.0,2.0,47,0.00,,,0.00,Wunderground v.1.15,2013-02-06 05:31:00,
2013-02-05 22:36:00,36.8,18.4,29.99,NNW,346,2.0,2.0,47,0.00,,,0.00,Wunderground v.1.15,2013-02-06 05:36:00,
2013-02-05 22:41:00,36.5,18.6,29.99,NNW,346,2.0,3.0,48,0.00,,,0.00,Wunderground v.1.15,2013-02-06 05:41:00,
2013-02-05 22:46:00,36.3,18.0,29.99,NNW,347,2.0,4.0,47,0.00,,,0.00,Wunderground v.1.15,2013-02-06 05:46:00,
2013-02-05 22:51:00,36.1,18.8,29.99,NNW,346,1.0,2.0,49,0.00,,,0.00,Wunderground v.1.15,2013-02-06 05:51:00,
2013-02-05 22:56:00,35.9,18.6,30.00,NNW,346,0.0,2.0,49,0.00,,,0.00,Wunderground v.1.15,2013-02-06 05:56:00,
2013-02-05 23:01:00,35.7,18.4,30.00,NNW,346,0.0,0.0,49,0.00,,,0.00,Wunderground v.1.15,2013-02-06 06:01:00,
2013-02-05 23:06:00,35.7,18.4,30.00,NNW,346,1.0,2.0,49,0.00,,,0.00,Wunderground v.1.15,2013-02-06 06:06:00,
2013-02-05 23:11:00,35.6,18.3,30.00,NNW,346,1.0,1.0,49,0.00,,,0.00,Wunderground v.1.15,2013-02-06 06:11:00,
2013-02-05 23:16:00,35.3,18.0,30.00,NNW,346,1.0,3.0,49,0.00,,,0.00,Wunderground v.1.15,2013-02-06 06:16:00,
2013-02-05 23:22:00,35.0,18.2,30.00,NNW,346,1.0,1.0,50,0.00,,,0.00,Wunderground v.1.15,2013-02-06 06:22:00,
2013-02-05 23:27:00,34.6,17.8,30.00,NNW,346,0.0,1.0,50,0.00,,,0.00,Wunderground v.1.15,2013-02-06 06:27:00,
2013-02-05 23:32:00,34.3,18.0,30.00,NNW,346,0.0,1.0,51,0.00,,,0.00,Wunderground v.1.15,2013-02-06 06:32:00,
2013-02-05 23:37:00,34.0,17.7,30.01,NNW,347,0.0,1.0,51,0.00,,,0.00,Wunderground v.1.15,2013-02-06 06:37:00,
2013-02-05 23:42:00,34.1,18.3,30.00,NNW,347,2.0,3.0,52,0.00,,,0.00,Wunderground v.1.15,2013-02-06 06:42:00,
2013-02-05 23:47:00,34.3,18.0,30.00,NNW,346,1.0,3.0,51,0.00,,,0.00,Wunderground v.1.15,2013-02-06 06:47:00,
2013-02-05 23:52:00,34.3,18.0,30.01,NNW,346,4.0,4.0,51,0.00,,,0.00,Wunderground v.1.15,2013-02-06 06:52:00,
2013-02-05 23:57:00,34.4,18.1,30.01,North,351,3.0,4.0,51,0.00,,,0.00,Wunderground v.1.15,2013-02-06 06:57:00,